Greenville, ME

12:04 AM EST on December 10, 2019 (GMT -0500)
Greenville

Weather History for KGNR - August, 2019

Change the Weather History Date:

Saturday, August 10, 2019

  Actual Average (KMLT) Record (KMLT)
Temperature  
Mean Temperature 60 °F -  
Max Temperature 66 °F 78 °F 94 °F (2001)
Min Temperature 54 °F 58 °F 39 °F (1919)
Degree Days  
Heating Degree Days 5    
Growing Degree Days 10 (Base 50)    
Moisture  
Dew Point 52 °F    
Average Humidity 79    
Maximum Humidity 93    
Minimum Humidity 59    
Precipitation  
Precipitation 0.08 in - - ()
Sea Level Pressure  
Sea Level Pressure 29.68 in    
Wind  
Wind Speed 3 mph (NW)    
Max Wind Speed 10 mph    
Max Gust Speed 26 mph    
Averages and records for this station are not official NWS values.
T = Trace of Precipitation, MM = Missing Value Source: NWS Daily Summary

Daily Weather History Graph

Daily Weather History Graph

Search for Another Location

Airport or City:

Astronomy

Aug. 10, 2019 Rise Set
Actual Time 5:32 AM EDT 7:53 PM EDT
Civil Twilight 4:59 AM EDT 8:26 PM EDT
Nautical Twilight 4:18 AM EDT 9:07 PM EDT
Astronomical Twilight 3:32 AM EDT 9:53 PM EDT
Moon 4:39 PM EDT 1:02 AM EDT
Length of Visible Light 15h 27m
Length of Day
14h 21m
Waxing Gibbous, 79% of the Moon is Illuminated
Aug 10
Waxing Gibbous
Aug 15
Full
Aug 23
Last Quarter
Aug 30
New
Sep 5
First Quarter

Hourly Weather History & Observations

Time (EDT) Temp. Dew Point Humidity Pressure Visibility Wind Dir Wind Speed Gust Speed Precip Events Conditions
12:56 AM 57.9 °F 54.0 °F 87% 29.65 in - Calm Calm - N/A   Unknown
1:56 AM 55.9 °F 53.1 °F 90% 29.66 in - Calm Calm - N/A   Unknown
2:56 AM 54.0 °F 52.0 °F 93% 29.65 in - Calm Calm - N/A   Unknown
3:56 AM 55.0 °F 53.1 °F 93% 29.65 in - Calm Calm - N/A   Unknown
4:56 AM 55.9 °F 53.1 °F 90% 29.65 in - Calm Calm - N/A   Unknown
5:56 AM 57.0 °F 54.0 °F 89% 29.66 in - Calm Calm - N/A   Unknown
6:56 AM 57.0 °F 54.0 °F 89% 29.66 in - Calm Calm - N/A   Unknown
7:56 AM 57.0 °F 53.1 °F 87% 29.67 in - Calm Calm - N/A   Unknown
8:56 AM 57.9 °F 55.0 °F 90% 29.67 in - Calm Calm - 0.04 in   Unknown
9:56 AM 62.1 °F 55.0 °F 78% 29.66 in - Variable 3.5 mph - N/A   Unknown
10:56 AM 63.0 °F 54.0 °F 72% 29.66 in - Variable 5.8 mph - N/A   Unknown
11:56 AM 59.0 °F 54.0 °F 83% 29.66 in - Calm Calm - N/A   Unknown
12:56 PM 66.9 °F 54.0 °F 63% 29.63 in - NW 8.1 mph - N/A   Unknown
1:56 PM 66.9 °F 52.0 °F 59% 29.63 in - Variable 4.6 mph - 0.01 in   Unknown
2:56 PM 60.1 °F 51.1 °F 72% 29.66 in - Variable 4.6 mph - 0.03 in   Unknown
3:56 PM 62.1 °F 50.0 °F 65% 29.66 in - Variable 6.9 mph - N/A   Unknown
4:56 PM 62.1 °F 48.0 °F 60% 29.66 in - WNW 10.4 mph 26.5 mph N/A   Unknown
5:56 PM 59.0 °F 48.9 °F 69% 29.67 in - Variable 5.8 mph 17.3 mph N/A   Unknown
6:56 PM 57.9 °F 50.0 °F 75% 29.70 in - NW 9.2 mph 18.4 mph N/A   Unknown
7:56 PM 57.0 °F 48.9 °F 74% 29.73 in - NW 6.9 mph - N/A   Unknown
8:56 PM 55.9 °F 48.0 °F 75% 29.75 in - NW 8.1 mph - N/A   Unknown
9:56 PM 55.0 °F 48.9 °F 80% 29.75 in - NW 10.4 mph - N/A   Unknown
10:56 PM 54.0 °F 50.0 °F 86% 29.75 in - NW 9.2 mph - N/A   Unknown
11:56 PM 54.0 °F 50.0 °F 86% 29.77 in - NW 9.2 mph - N/A   Unknown